Location: Unspecified
(35.6961°N, 0.0000°E)
Time: 03:35:22
(UTC+00:00)

Vanguard 3 - Pass Details

Date: 05 June 2019
Orbit: 508 x 3263 km, 33.3° (Epoch: 23 June)

Event Time Altitude Azimuth Distance (km) Brightness Sun altitude
Rises 17:41:59 0° 252° (WSW) 2,633 10.7 16.1°
Reaches altitude 10° 17:44:09 10° 247° (WSW) 1,710 9.8 15.7°
Maximum altitude 17:47:43 53° 169° (S) 657 6.7 15.0°
Drops below altitude 10° 17:51:56 10° 92° (E) 2,032 8.7 14.2°
Sets 17:54:44 0° 88° (E) 3,206 9.6 13.7°
